Volver al catálogo

H-2A R/B

ActivoVLEO
NORAD 41341·ROCKET BODY·🇯🇵 Japan

Lanzado Feb 17, 2016 desde Tanegashima Space Center

Loading…

Próximos Pases (próximas 24 horas)

TLE

ActualizadoSource: Space-Track

Época: Sep 14, 2026, 09:58 UTC

1 41341U 16012E   26257.41594413  .00051702  00000-0  49079-3 0  9993
2 41341  30.6210   5.9732 0004779 143.0025 217.0951 15.65535706585494

Sigue H-2A R/B en tiempo real con AllMySat

Download on the App Store